RH
89 90 88 80 73 62 65 71 71 65 53 52 60 60 50 43 42 42 38 35 32 31 33 33 33 32 32 33 33 31 30 29 32 37 42 38 38 46 62 61 60 62 66 72
97 87 70 67 65 66 69 76 76 62 52 51 57 56 46 41 43 40 40 38 36 34 30 26 23 21 23 25 29 32 32 32 31 31 31 32 34 36 39 51 56 59 60 62
97 90 66 69 77 75 80 78 76 68 56 55 60 55 45 38 35 33 34 32 29 30 27 25 21 21 24 26 25 26 29 31 32 33 32 33 34 38 37 39 42 46 55 58
94 90 84 81 78 72 92 72 62 59 65 71 60 66 53 45 32 36 44 41 37 34 35 37 34 28 25 25 25 25 24 24 30 33 34 34 34 40 36 31 30 30 36 52
89 97 93 91 89 72 83 58 61 62 69 66 65 65 43 36 37 38 42 44 44 43 44 42 41 43 44 40 35 29 26 26 26 26 33 33 32 32 33 35 36 38 38 46
65 58 66 88 85 80 58 60 66 70 70 81 64 65 38 38 39 40 40 43 46 50 52 48 44 37 37 40 39 38 36 33 28 29 31 35 34 36 38 39 40 41 42 44
95 75 57 69 87 64 57 73 86 67 82 77 72 74 49 41 40 40 40 42 46 52 57 60 56 48 41 36 36 38 39 35 33 35 32 32 32 33 37 38 41 48 42 42
94 95 65 56 64 74 67 68 84 56 65 58 72 73 41 44 37 38 42 48 48 55 64 70 71 70 62 51 45 41 37 38 37 34 30 34 38 38 35 31 29 30 34 41
81 92 61 62 59 58 68 80 60 83 79 81 59 53 32 42 42 40 44 48 52 55 69 70 70 73 70 62 54 51 45 42 38 39 36 31 29 28 28 30 32 32 29 29
66 94 70 63 56 60 62 64 79 85 73 58 46 50 32 42 41 45 46 47 50 57 76 70 70 72 68 63 56 53 55 56 50 44 43 35 34 32 29 27 23 24 28 30
64 72 84 65 71 76 72 79 80 72 73 57 45 31 40 39 44 49 45 46 51 75 80 73 75 76 76 77 69 64 64 65 63 58 49 42 37 35 33 30 26 26 30 33
62 78 94 81 65 62 63 73 69 80 81 90 84 50 42 43 44 46 43 48 54 78 79 73 74 77 82 82 78 74 70 64 59 55 50 48 43 39 35 33 32 38 40 47
59 79 95 87 71 68 75 73 68 72 82 97 79 42 44 50 46 42 47 49 68 82 77 75 78 83 85 83 78 74 67 63 60 57 54 53 51 46 50 60 74 72 79 84
53 71 71 80 72 81 90 82 73 76 90 80 82 61 47 45 48 48 48 54 82 81 74 78 84 84 85 77 81 77 70 68 65 58 65 66 68 71 80 96 100 99 99 99
62 84 79 73 68 82 79 81 81 82 76 81 58 72 51 49 52 47 52 80 85 77 75 82 88 88 88 83 78 73 76 77 75 76 78 88 89 95 100 99 100 99 99 100
67 97 88 85 72 83 89 79 82 77 75 75 71 72 48 47 48 59 79 87 81 73 76 86 93 92 89 83 81 80 84 88 88 93 96 98 99 100 100 100 100 100 100 100
71 90 87 84 75 79 91 82 79 82 78 67 83 62 52 54 59 63 85 87 77 74 77 83 87 87 83 83 86 87 87 91 92 92 94 93 97 100 100 100 100 100 98 99
77 84 88 96 76 90 49 62 65 66 64 69 66 59 51 54 59 82 89 82 76 77 80 80 81 81 81 84 88 90 91 95 95 96 98 99 98 98 99 100 100 100 100 100
61 83 93 92 94 70 62 73 71 71 65 57 59 56 58 68 77 88 85 82 80 78 79 81 83 82 82 86 88 86 83 83 90 98 98 98 99 100 100 99 99 98 97 99
78 74 81 92 81 86 54 61 59 60 87 62 63 70 75 73 81 84 84 83 80 80 80 82 84 84 85 88 77 80 79 81 86 93 96 98 99 99 99 99 99 99 99 99
99 98 94 82 84 77 59 51 65 94 79 59 63 65 67 77 75 81 80 79 82 84 83 84 85 81 87 77 80 83 83 91 94 98 98 98 100 99 99 99 99 100 100 99
77 83 89 89 89 88 50 72 80 67 58 59 61 63 64 66 74 79 81 79 83 86 85 87 86 87 84 88 97 89 93 99 100 100 99 99 99 99 100 99 100 78 52 36
90 80 88 78 70 52 54 52 57 62 62 59 62 64 63 65 72 79 82 83 83 87 82 83 86 92 92 92 93 91 96 99 100 100 100 99 99 90 55 38 33 31 34 37
80 71 82 82 68 69 58 57 61 66 72 67 64 64 63 66 73 80 82 87 83 89 84 85 97 100 98 98 99 98 98 99 99 98 85 68 47 37 33 32 33 36 39 36
76 74 76 80 72 68 65 70 76 72 70 69 66 67 65 68 74 82 82 88 85 85 89 85 85 99 98 98 99 99 99 89 67 65 57 44 35 31 29 30 35 38 29 23
83 80 85 82 72 84 78 72 76 77 74 72 70 68 68 68 78 83 83 84 86 84 87 92 95 98 99 99 84 73 71 63 63 57 47 37 30 28 31 39 33 24 22 21
Wind_Speed
17 6 16 17 5 4 8 5 4 3 1 2 4 4 10 16 17 19 24 27 27 27 25 24 24 25 25 24 25 26 27 31 33 34 35 34 34 33 38 35 33 31 29 30
7 12 9 12 8 6 6 6 4 1 2 1 4 9 15 10 7 14 16 19 19 19 18 15 17 19 24 27 26 25 28 27 30 37 38 38 37 37 34 36 39 35 32 33
1 1 15 13 9 9 2 5 3 2 1 2 6 5 4 3 5 13 14 4 4 6 11 12 9 8 8 13 19 25 28 28 29 29 31 38 39 39 38 37 38 36 37 38
3 3 8 13 15 8 5 3 3 4 2 1 4 4 4 3 5 7 18 25 21 18 17 19 17 13 7 4 8 12 19 28 32 29 30 31 36 41 43 42 39 38 38 38
1 9 16 9 2 8 2 4 4 3 4 1 2 2 4 1 4 5 7 17 18 18 20 21 20 17 14 11 9 7 9 13 20 31 33 33 34 32 31 36 39 38 37 38
4 3 4 3 5 5 9 5 5 3 2 1 1 2 2 1 2 1 4 15 16 18 20 18 17 14 10 9 9 8 8 8 10 15 24 27 30 31 32 30 30 32 35 38
4 4 4 12 8 4 1 3 1 2 2 2 2 1 5 3 2 5 1 14 15 16 22 23 21 18 16 15 14 12 11 8 7 8 13 20 24 27 30 30 31 33 34 34
3 4 4 1 4 7 1 1 3 3 3 1 2 5 2 4 6 4 10 12 14 16 22 23 23 21 21 19 18 18 18 16 13 12 12 14 16 19 23 24 26 29 34 34
5 3 1 5 3 1 3 2 1 6 2 1 2 5 6 2 3 3 13 19 21 20 24 24 24 23 24 25 22 20 22 21 20 18 16 16 16 17 18 20 22 26 28 30
1 5 3 2 4 10 3 6 2 2 3 3 3 4 3 4 5 4 9 16 19 18 23 23 24 23 24 24 19 16 18 20 21 21 19 19 18 17 19 21 23 25 26 28
3 3 2 3 1 5 2 1 4 4 1 2 2 3 4 6 5 4 12 19 19 17 21 22 19 20 21 18 17 13 12 10 8 12 14 15 15 17 21 24 26 27 27 28
1 4 3 1 1 1 2 4 3 3 3 1 1 5 2 5 4 8 16 18 17 21 22 21 18 18 16 13 13 12 8 9 11 12 13 16 17 19 21 24 26 27 27 26
5 2 3 1 1 2 2 4 4 4 3 4 4 3 1 2 7 14 11 19 15 19 21 18 17 13 13 12 12 10 12 14 15 16 18 23 27 28 23 21 20 20 17 17
6 3 4 5 4 3 3 3 4 5 3 4 5 5 8 7 6 14 19 15 14 15 17 16 15 7 9 10 10 14 15 17 18 20 17 18 20 23 19 15 10 8 10 10
3 3 2 2 1 3 3 4 8 6 5 5 2 6 8 10 8 15 15 10 13 14 14 15 13 6 7 9 14 17 18 18 17 15 14 14 12 12 9 10 8 6 8 11
2 3 2 3 0 5 4 7 9 8 3 8 7 17 14 21 13 10 6 10 11 13 13 13 10 6 7 9 13 16 15 14 15 12 9 9 10 8 5 4 5 6 7 9
4 5 2 3 2 2 5 9 12 5 5 9 7 10 3 7 7 11 8 6 10 11 10 11 9 7 7 10 12 12 12 12 11 13 12 10 8 5 3 1 3 5 7 9
5 4 2 1 2 1 4 3 8 14 3 11 7 9 12 10 14 6 3 7 9 10 8 7 7 7 8 9 10 11 10 9 9 10 9 8 7 4 5 7 10 15 15 18
3 4 3 0 2 5 0 3 6 6 4 9 11 11 11 9 5 3 2 5 9 8 6 5 5 6 6 8 9 9 8 8 9 9 9 7 6 6 8 12 15 17 17 17
4 4 3 2 2 3 3 1 4 3 2 5 7 6 5 5 1 3 1 5 8 6 5 4 4 4 6 6 7 7 6 7 10 12 13 13 11 12 14 15 16 19 19 21
2 1 4 3 3 6 6 5 0 2 2 2 3 4 4 3 5 3 1 4 6 7 7 4 2 3 5 6 7 7 9 12 13 13 14 14 14 16 16 18 16 15 15 14
6 5 3 3 3 6 4 4 1 2 9 8 5 4 5 5 7 6 4 1 4 8 9 6 4 6 7 7 8 12 13 13 14 15 16 17 16 15 14 14 15 14 13 12
4 5 4 6 5 4 2 5 14 9 6 7 9 8 9 7 6 9 7 4 3 7 10 10 11 13 13 13 13 15 16 15 15 15 16 16 16 16 16 14 14 12 10 9
3 7 3 0 2 5 9 8 4 4 12 14 12 12 11 9 6 10 10 8 6 8 10 8 11 13 14 14 14 13 13 14 13 15 16 15 13 13 12 10 10 8 7 6
4 7 4 4 6 8 1 4 11 16 17 11 10 11 11 10 9 11 12 12 10 9 12 11 9 12 13 13 12 13 13 13 13 12 12 11 10 9 8 7 6 5 4 4
7 6 4 5 5 3 8 12 18 14 12 10 11 11 12 11 9 11 13 13 13 13 13 14 14 11 13 13 12 12 12 11 8 8 9 8 7 6 5 5 5 4 5 6
Wind_Direction
180 172 197 186 148 161 134 135 167 197 113 193 231 250 272 272 274 266 267 267 270 275 283 283 279 273 270 264 259 256 251 245 239 238 238 241 244 245 245 244 246 247 249 253
156 204 182 156 141 133 131 142 188 85 71 153 335 285 262 256 248 273 284 284 288 292 297 295 287 279 267 259 255 252 248 248 246 243 243 245 246 247 248 250 248 246 247 250
120 267 161 165 167 138 132 154 169 129 43 79 319 297 307 34 28 47 38 341 360 18 359 1 343 311 287 257 250 248 245 246 247 246 245 244 246 248 248 246 246 245 244 246
156 163 126 148 181 167 152 96 105 111 91 275 0 300 307 12 69 33 42 58 59 57 48 38 35 31 16 324 270 259 248 240 238 244 246 248 247 245 246 247 249 251 246 246
57 157 155 151 102 109 133 132 118 101 98 56 21 131 274 277 75 21 4 35 42 46 41 35 31 31 28 24 14 331 282 265 251 242 242 246 250 253 256 256 255 253 253 250
69 75 66 94 63 101 154 80 58 55 95 63 229 206 298 142 123 327 325 28 34 36 26 18 12 9 1 358 354 345 342 328 282 262 245 248 250 254 255 254 254 255 255 255
43 16 73 115 77 43 44 136 57 24 47 210 24 145 251 258 208 194 352 20 29 25 11 4 357 346 335 330 322 314 308 309 303 277 259 256 256 254 256 258 258 254 256 256
119 114 359 28 138 160 133 179 158 186 182 210 72 230 229 214 312 174 358 14 24 18 9 0 353 342 334 324 312 300 292 289 291 296 282 267 257 255 257 258 262 265 264 260
131 80 14 43 91 85 186 97 133 104 24 7 206 279 292 89 170 260 348 11 9 4 0 357 348 340 334 326 315 299 289 274 273 276 282 277 269 265 267 269 269 265 262 263
115 93 35 167 73 39 98 136 89 11 138 248 269 268 207 222 212 286 349 0 356 354 349 349 347 344 341 339 326 310 299 285 266 263 271 278 283 289 288 281 275 271 267 264
110 86 26 121 74 160 118 119 59 104 103 174 299 266 208 199 195 310 343 351 348 347 344 346 346 344 346 353 355 348 338 335 310 282 280 280 285 287 283 280 278 272 265 258
59 114 112 118 163 198 149 154 144 124 206 99 93 274 243 209 225 326 317 342 342 340 344 346 339 337 344 351 360 6 15 5 349 332 320 318 310 296 290 282 273 267 258 254
177 58 97 126 176 14 183 169 122 97 71 203 159 254 202 276 289 316 311 340 336 341 340 341 338 337 350 351 354 355 6 358 340 328 315 297 291 301 297 282 273 264 254 251
98 110 149 181 199 132 166 168 172 134 152 179 228 295 288 297 302 318 330 335 333 340 344 343 343 345 358 351 3 4 353 341 334 326 316 305 300 294 288 281 270 262 257 249
95 117 111 253 156 130 198 176 184 198 188 172 252 226 273 281 296 305 312 329 341 342 341 351 349 350 0 353 3 355 351 348 346 335 334 326 317 303 278 262 245 237 240 227
23 127 96 346 152 204 242 222 198 218 228 264 265 286 275 274 296 302 345 342 335 345 349 351 358 353 357 360 359 352 351 2 10 3 14 10 348 330 300 246 226 215 204 193
114 132 88 274 351 298 281 223 198 185 205 210 209 234 318 307 318 330 327 330 341 344 345 358 6 16 355 359 357 352 1 7 5 7 18 13 19 15 33 77 122 133 134 137
120 104 88 235 9 311 246 159 189 202 201 218 269 275 277 284 302 294 321 335 343 351 347 359 6 7 3 355 355 2 4 5 9 6 13 22 27 52 85 110 117 120 129 129
131 119 112 130 242 285 345 178 140 175 203 205 225 260 281 310 299 246 310 351 354 352 344 352 354 5 360 359 4 6 10 17 21 34 49 53 65 84 97 103 103 109 118 118
73 91 118 182 266 224 248 2 164 190 182 187 195 258 283 336 328 222 332 0 8 360 344 345 358 5 8 11 21 17 34 50 63 73 80 81 90 100 104 104 109 116 118 121
138 141 182 220 240 273 252 239 153 163 174 328 238 287 299 232 236 283 313 352 29 32 18 16 21 31 34 47 50 63 79 85 86 91 94 95 102 103 103 104 104 109 109 112
184 185 187 168 210 268 213 110 191 265 303 284 288 320 306 297 263 240 226 261 50 57 37 51 70 80 79 70 76 93 94 89 94 97 99 101 103 102 103 103 104 98 96 96
206 182 187 180 213 236 189 308 325 322 279 304 311 323 326 311 261 228 213 197 123 95 70 79 95 99 98 93 95 99 95 103 105 108 107 106 109 108 104 101 96 95 90 80
236 197 228 82 253 233 272 289 351 12 340 309 308 316 319 307 268 220 210 198 169 134 111 109 117 114 109 105 102 105 109 114 118 120 114 111 110 105 101 95 89 79 75 68
212 156 206 250 285 307 332 88 358 315 318 312 305 311 313 302 270 221 207 200 186 169 150 144 144 136 132 127 127 128 126 122 123 119 110 108 104 97 89 84 81 78 70 51
193 189 172 225 199 222 277 315 323 328 328 316 309 307 304 295 266 225 209 206 199 187 174 171 166 166 154 147 142 132 130 128 131 130 125 118 109 100 86 67 50 44 28 23